Location: Asheville, NC
(35.6000°N, 82.5500°W)
Time: 12:49:26
(UTC-05:00)

Hubble Space Telescope - Pass Details

Date: 08 January 2018
Orbit: 537 x 541 km, 28.5° (Epoch: 16 January)

Event Time Altitude Azimuth Distance (km) Brightness Sun altitude
Exits shadow 06:04:18 23° 220° (SW) 1,165 2.2 -19.1°
Maximum altitude 06:05:42 28° 186° (S) 1,010 2.2 -18.8°
Drops below altitude 10° 06:09:17 10° 126° (SE) 1,781 4.5 -18.1°
Sets 06:11:45 0° 114° (ESE) 2,671 6.0 -17.6°
